DW2130 Tybee Island GA US current weather conditions

sailwx.info

Wind from 209

Air temperature 16.7° C
Dewpoint 1.5° C

Last reported at 2020-Feb-26 12:46 UTC.
Time now 2020-Feb-26 13:52 UTC

Location: N 32°01' W 080°51'.
View on Google Maps.

See reports from other nearby stations

  
Tides and Currents Weather Stations Pressure Air Temp Water Temp Dewpoint Dewpoint Depression Visibility Wind Speed Wind Dir Waves Ship Positions
date/time (UTC)wind fromknots sea level pressurealtimeterstation pressurevisibilityair tempwater tempwave heightnotes
2020-Feb-26 12:46 209 16.7
2020-Feb-26 12:16 209 16.7
2020-Feb-26 11:46 203 0 16.7
2020-Feb-26 11:16 202 0 16.7
2020-Feb-26 11:00 223 0 16.7
2020-Feb-26 10:46 238 16.7
2020-Feb-26 10:30 238 0 17.2
2020-Feb-26 10:00 225 16.7
2020-Feb-26 09:30 229 0 16.7
2020-Feb-26 09:00 240 16.1
2020-Feb-26 08:31 286 0 16.1
2020-Feb-26 08:02 202 2 16.1
2020-Feb-26 07:45 197 4 16.7
2020-Feb-26 07:31 205 5 16.1
2020-Feb-26 07:16 196 2 16.1
2020-Feb-26 06:45 202 1 16.1
2020-Feb-26 06:16 210 2 17.2
2020-Feb-26 05:46 208 1 17.8
2020-Feb-26 05:30 232 0 17.8
2020-Feb-26 05:16 236 0 17.8
2020-Feb-26 05:00 263 0 17.8
2020-Feb-26 04:31 241 0 17.8
2020-Feb-26 04:01 298 0 17.2
2020-Feb-26 03:32 205 2 17.2
2020-Feb-26 03:15 175 1 17.2
2020-Feb-26 02:45 219 1 16.7
2020-Feb-26 02:16 218 1 16.7
2020-Feb-26 01:46 204 2 16.1
2020-Feb-26 01:30 199 4 16.1
2020-Feb-26 01:17 233 4 16.1
2020-Feb-26 01:00 196 5 16.1
2020-Feb-26 00:46 193 4 16.7
2020-Feb-26 00:30 185 4 16.7
2020-Feb-26 00:16 178 4 16.7
2020-Feb-26 00:00 199 3 16.7
2020-Feb-25 23:46 202 4 16.7
2020-Feb-25 23:30 200 5 16.7
2020-Feb-25 23:00 196 4 16.7
2020-Feb-25 22:30 201 4 16.7
2020-Feb-25 22:01 234 3 16.7
2020-Feb-25 21:31 199 5 17.2
2020-Feb-25 21:01 210 4 17.2
2020-Feb-25 20:15 186 5 17.8
2020-Feb-25 20:01 195 6 17.8
2020-Feb-25 19:45 204 6 17.8
2020-Feb-25 19:31 178 7 17.8
2020-Feb-25 19:15 201 6 17.8
2020-Feb-25 19:01 200 6 18.3
2020-Feb-25 18:45 220 7 17.8
2020-Feb-25 18:33 202 6 18.3
2020-Feb-25 18:15 196 6 18.3
2020-Feb-25 17:45 197 4 17.8
2020-Feb-25 17:15 204 4 17.8
2020-Feb-25 16:48 200 4 17.2
2020-Feb-25 16:16 230 5 16.1
2020-Feb-25 15:46 201 4 16.1
2020-Feb-25 15:30 186 3 16.1
2020-Feb-25 15:15 193 4 16.1
2020-Feb-25 15:00 199 6 16.1
2020-Feb-25 14:31 187 6 15.6
2020-Feb-25 14:01 169 5 15.6
2020-Feb-25 13:31 189 4 15.6
2020-Feb-25 13:01 215 5 15.0
2020-Feb-25 12:45 133 7 15.0
2020-Feb-25 12:31 128 5 15.0
2020-Feb-25 12:15 167 5 15.0
2020-Feb-25 11:45 201 3 15.6
2020-Feb-25 11:15 139 2 16.1
2020-Feb-25 10:46 206 1 16.1
2020-Feb-25 10:16 204 2 15.6
2020-Feb-25 09:46 344 15.6
2020-Feb-25 09:30 344 1 15.6
2020-Feb-25 09:16 308 1 15.6
2020-Feb-25 09:00 317 1 16.1
2020-Feb-25 08:46 317 1 16.1
2020-Feb-25 08:30 281 1 16.1
2020-Feb-25 08:00 217 0 16.1
2020-Feb-25 07:30 209 3 16.1
2020-Feb-25 07:01 229 0 15.6
2020-Feb-25 06:31 217 1 15.6
2020-Feb-25 06:01 202 3 16.1
2020-Feb-25 05:31 215 2 16.1
2020-Feb-25 05:15 206 2 16.1
2020-Feb-25 05:01 219 1 16.1
2020-Feb-25 04:45 204 0 16.1
2020-Feb-25 04:15 196 1 16.7
2020-Feb-25 03:46 190 1 16.7
2020-Feb-25 03:15 196 2 16.7
2020-Feb-25 02:46 153 2 16.7
2020-Feb-25 02:16 111 1 15.6
2020-Feb-25 02:00 115 3 15.0
2020-Feb-25 01:46 078 4 15.0
2020-Feb-25 01:30 092 3 15.0
2020-Feb-25 01:00 080 2 14.4
2020-Feb-25 00:31 088 1 14.4
2020-Feb-25 00:01 098 2 14.4
2020-Feb-24 23:33 077 2 14.4
2020-Feb-24 23:15 087 2 14.4
2020-Feb-24 22:46 086 2 15.0
2020-Feb-24 22:30 084 3 15.0
2020-Feb-24 22:16 117 3 15.0
2020-Feb-24 22:01 131 2 15.0
2020-Feb-24 21:30 092 0 17.2
2020-Feb-24 21:00 087 0 18.3
2020-Feb-24 20:30 159 20.0
2020-Feb-24 20:00 229 0 20.0
2020-Feb-24 19:30 239 0 18.9
2020-Feb-24 19:00 199 0 18.9
2020-Feb-24 18:30 226 1 18.3
2020-Feb-24 17:45 206 1 17.8
2020-Feb-24 17:17 214 1 17.2
2020-Feb-24 16:45 192 1 16.7
2020-Feb-24 16:30 192 1 16.1
2020-Feb-24 16:15 191 2 16.7
2020-Feb-24 16:00 192 2 17.2
2020-Feb-24 15:46 202 1 17.2
2020-Feb-24 15:30 196 1 16.7
2020-Feb-24 15:00 109 0 15.0
2020-Feb-24 14:30 090 14.4
2020-Feb-24 14:01 089 0 13.3
2020-Feb-24 13:30 089 1 13.3
2020-Feb-24 13:02 094 0 12.8